K3GM Weather Reports


Display with metric or nautical units.
time (UTC)temp
F
wind
direction
speed
MPH
gust
MPH
rain 1hr
in
rain 24hr
in
rain mn
in
humidity
%
barometer
mb
20260901070042 73 0 0.0 0.0 0.00 0.00 0.00 100 1017.2
20260901064543 73 0 0.0 0.0 0.00 0.00 0.00 100 1017.3
20260901063041 73 0 0.0 0.0 0.00 0.00 0.00 100 1017.4
20260901061543 73 0 0.0 0.0 0.00 0.00 0.00 99 1017.4
20260901060041 73 0 0.0 0.0 0.00 0.00 0.00 98 1017.5
20260901054538 73 0 0.0 0.0 0.00 0.00 0.00 98 1017.8
20260901053103 73 0 0.0 0.0 0.00 0.00 0.00 98 1017.9
20260901051602 73 0 0.0 0.0 0.00 0.00 0.00 98 1017.9
20260901050041 73 0 0.0 0.0 0.00 0.00 0.00 97 1017.9
20260901044539 73 0 0.0 0.0 0.00 0.00 0.00 96 1018.2
20260901043044 73 0 0.0 0.0 0.00 0.00 0.00 95 1018.4
20260901041554 73 0 0.0 0.0 0.00 0.00 0.00 95 1018.4
20260901040043 73 0 0.0 0.0 0.00 0.00 0.00 94 1018.3
20260901034543 73 0 0.0 0.0 0.00 0.00 0.00 94 1018.6
20260901033041 73 0 0.0 0.0 0.00 0.00 0.00 94 1018.6
20260901031554 73 0 0.0 0.0 0.00 0.00 0.00 94 1018.6
20260901030038 73 0 0.0 0.0 0.00 0.00 0.00 94 1018.6
20260901024539 73 0 0.0 0.0 0.00 0.00 0.00 93 1018.7
20260901023043 73 0 0.0 0.0 0.00 0.00 0.00 92 1018.6
20260901021542 73 0 0.0 0.0 0.00 0.00 0.00 91 1018.9
20260901020042 73 0 0.0 0.0 0.00 0.00 0.00 91 1018.9
20260901014546 74 0 0.0 0.0 0.00 0.00 0.00 90 1018.7
20260901013036 74 0 0.0 0.0 0.00 0.00 0.00 89 1018.8
20260901011541 74 0 0.0 0.0 0.00 0.00 0.00 88 1018.6
20260901010042 75 0 0.0 0.0 0.00 0.00 0.00 87 1018.5
20260901004542 76 0 0.0 0.0 0.00 0.00 0.00 86 1018.7
20260901003042 76 0 0.0 0.0 0.00 0.00 0.00 85 1018.5
20260901001551 77 0 0.0 0.0 0.00 0.00 0.00 82 1018.3
20260901000039 77 0 0.0 0.0 0.00 0.00 0.00 80 1018.3
20260831234552 78 0 0.0 0.0 0.00 0.00 0.00 79 1018.2
20260831233038 78 0 0.0 0.0 0.00 0.00 0.00 78 1018.4
20260831231536 78 0 0.0 0.0 0.00 0.00 0.00 76 1018.5
20260831230036 79 0 0.0 0.0 0.00 0.00 0.00 75 1018.6
20260831224543 79 0 0.0 0.0 0.00 0.00 0.00 74 1018.5
20260831223040 79 0 0.0 0.0 0.00 0.00 0.00 72 1018.6
20260831221538 79 0 0.0 0.0 0.00 0.00 0.00 72 1018.7
20260831220042 79 0 0.0 0.0 0.00 0.00 0.00 71 1019.0
20260831214542 79 0 0.0 0.0 0.00 0.00 0.00 64 1018.9
20260831213042 79 0 0.0 0.0 0.00 0.00 0.00 70 1019.0
20260831211540 80 0 0.0 0.0 0.00 0.00 0.00 64 1019.1
20260831210043 80 0 0.0 0.0 0.00 0.00 0.00 68 1019.0
20260831204538 80 0 0.0 0.0 0.00 0.00 0.00 62 1019.2
20260831203039 80 0 0.0 0.0 0.00 0.00 0.00 70 1019.4
20260831201546 80 0 0.0 0.0 0.00 0.00 0.00 66 1019.2
20260831200036 80 0 0.0 0.0 0.00 0.00 0.00 60 1019.5
20260831194540 80 0 0.0 0.0 0.00 0.00 0.00 59 1019.4
20260831193042 80 0 0.0 0.0 0.00 0.00 0.00 69 1019.6
20260831191538 80 0 0.0 0.0 0.00 0.00 0.00 70 1019.9
20260831190041 79 0 0.0 0.0 0.00 0.00 0.00 63 1020.0
20260831184542 79 0 0.0 0.0 0.00 0.00 0.00 71 1020.1
20260831183041 79 0 0.0 0.0 0.00 0.00 0.00 71 1020.0
20260831181548 80 0 0.0 0.0 0.00 0.00 0.00 69 1020.0
20260831180045 81 0 0.0 0.0 0.00 0.00 0.00 63 1020.2
20260831174541 81 0 0.0 0.0 0.00 0.00 0.00 70 1020.2
20260831173042 79 0 0.0 0.0 0.00 0.00 0.00 70 1020.1
20260831171539 78 0 0.0 0.0 0.00 0.00 0.00 71 1020.2
20260831170050 80 0 0.0 0.0 0.00 0.00 0.00 69 1020.4
20260831164540 79 0 0.0 0.0 0.00 0.00 0.00 66 1020.5
20260831163046 77 0 0.0 0.0 0.00 0.00 0.00 67 1020.6
20260831161544 77 0 0.0 0.0 0.00 0.00 0.00 69 1020.6
20260831160053 77 0 0.0 0.0 0.00 0.00 0.00 75 1020.4
20260831154603 77 0 0.0 0.0 0.00 0.00 0.00 77 1020.5
20260831153041 76 0 0.0 0.0 0.00 0.00 0.00 77 1020.5
20260831151538 75 0 0.0 0.0 0.00 0.00 0.00 78 1020.5
20260831150051 75 0 0.0 0.0 0.00 0.00 0.00 71 1020.9
20260831144542 75 0 0.0 0.0 0.00 0.00 0.00 72 1020.9
20260831143041 75 0 0.0 0.0 0.00 0.00 0.00 76 1020.7
20260831141540 75 0 0.0 0.0 0.00 0.00 0.00 78 1020.8
20260831140044 74 0 0.0 0.0 0.00 0.00 0.00 72 1020.7
20260831134540 73 0 0.0 0.0 0.00 0.00 0.00 79 1020.7
20260831133042 73 0 0.0 0.0 0.00 0.00 0.00 81 1020.6
20260831131540 73 0 0.0 0.0 0.00 0.00 0.00 76 1020.8
20260831130046 73 0 0.0 0.0 0.00 0.00 0.00 85 1020.9
20260831124542 72 0 0.0 0.0 0.00 0.00 0.00 87 1020.7
20260831123041 72 0 0.0 0.0 0.00 0.00 0.00 86 1020.8
20260831121541 71 0 0.0 0.0 0.00 0.00 0.00 88 1020.8
20260831120040 71 0 0.0 0.0 0.00 0.00 0.00 89 1020.6
20260831114551 70 0 0.0 0.0 0.00 0.00 0.00 90 1020.5
20260831113045 70 0 0.0 0.0 0.00 0.00 0.00 93 1020.2
20260831111548 70 0 0.0 0.0 0.00 0.00 0.00 93 1020.1
20260831110054 69 0 0.0 0.0 0.00 0.00 0.00 95 1019.9
20260831104545 69 0 0.0 0.0 0.00 0.00 0.00 99 1019.9
20260831103042 69 0 0.0 0.0 0.00 0.00 0.00 100 1020.0
20260831101551 69 0 0.0 0.0 0.00 0.00 0.00 100 1019.9
20260831100041 69 0 0.0 0.0 0.00 0.00 0.00 100 1019.5
20260831094543 69 0 0.0 0.0 0.00 0.00 0.00 100 1019.6
20260831093042 70 0 0.0 0.0 0.00 0.00 0.00 100 1019.2
20260831091547 70 0 0.0 0.0 0.00 0.00 0.00 100 1019.2
20260831090044 70 0 0.0 0.0 0.00 0.00 0.00 100 1019.0
20260831084542 70 0 0.0 0.0 0.00 0.00 0.00 100 1019.1
20260831083046 70 0 0.0 0.0 0.00 0.00 0.00 100 1019.3
20260831081543 70 0 0.0 0.0 0.00 0.00 0.00 100 1019.3
20260831080040 70 0 0.0 0.0 0.00 0.00 0.00 100 1019.4
20260831074545 70 0 0.0 0.0 0.00 0.00 0.00 99 1019.3
20260831073044 71 0 0.0 0.0 0.00 0.00 0.00 99 1019.3
20260831071541 71 0 0.0 0.0 0.00 0.00 0.00 99 1019.3